Regional Weather Roundup
Issued by NWS

Home | Current Version | Previous Version | Text Only | Print | Product List | Glossary On
Versions: 1 2 3 4 5 6 7 8 9 10 11 12 13 14 15 16 17 18 19 20 21 22 23 24 25 26 27 28 29 30 31 32 33 34 35 36 37 38 39 40 41 42 43 44 45 46 47 48 49 50
000
ASUS44 KLUB 271401
RWRTX
WEST TEXAS WEATHER ROUNDUP
NATIONAL WEATHER SERVICE LUBBOCK TX
900 AM CDT WED MAY 27 2015

NOTE: "FAIR" INDICATES FEW OR NO CLOUDS BELOW 12,000 FEET WITH NO
SIGNIFICANT WEATHER AND/OR OBSTRUCTIONS TO VISIBILITY.

TXZ004-006>008-010-012-014-016-OKZ002-271500-
TEXAS PANHANDLE/OKLAHOMA PANHANDLE

CITY           SKY/WX    TMP DP  RH WIND       PRES   REMARKS
AMARILLO       SUNNY     67  59  75 S13       30.10R
BORGER         SUNNY     67  58  72 CALM      30.08S
CANADIAN       MOSUNNY   66  62  87 E5        30.07R
DALHART        SUNNY     66  56  70 SE6       30.11F
DUMAS          SUNNY     66  57  74 S5        30.10S
GUYMON         SUNNY     68  61  78 S8        30.08R
$$

TXZ026-029-035-045-048-271500-
SOUTHERN PANHANDLE/SOUTH PLAINS/ROLLING PLAINS

CITY           SKY/WX    TMP DP  RH WIND       PRES   REMARKS
CHILDRESS      PTSUNNY   68  62  81 CALM      30.06R
SEMINOLE       CLOUDY    69  68  94 SE12      30.11S FOG
LUBBOCK        CLOUDY    70  66  87 S9        30.10R FOG
$$

TXZ052-054-060>062-072-078-127-140-154-169-271500-
PERMIAN BASIN/CONCHO VALLEY/BIG COUNTRY/EDWARDS PLATEAU

CITY           SKY/WX    TMP DP  RH WIND       PRES   REMARKS
ABILENE        CLOUDY    73  68  84 S10       30.05R
JUNCTION       PTSUNNY   76  70  82 SE9       30.06R
MIDLAND        CLOUDY    73  68  84 S17G26    30.07R HAZE
ODESSA         CLOUDY    73  66  78 S12G21    30.08R HAZE
SAN ANGELO     SUNNY     77  70  79 S10       30.05R
SWEETWATER     CLOUDY    72  71  96 S14       30.09S
WINK           MOSUNNY   73  67  81 SE15G25   30.04R
$$

TXZ055-058-074-075-080-082-271500-
FAR WEST/SOUTHWEST MOUNTAINS/TRANS PECOS

CITY           SKY/WX    TMP DP  RH WIND       PRES   REMARKS
ALPINE         SUNNY     71  56  58 CALM      30.17S
DRYDEN           N/A     75  68  78 CALM      30.03R
EL PASO        MOSUNNY   69  29  22 CALM      30.07R
FORT STOCKTON  SUNNY     72  63  73 SE16G22   30.06R
GUADALUPE PASS SUNNY     70  44  39 S3        30.19R
MARFA          SUNNY     70  57  64 CALM      30.17R
$$

TXZ014-016-019-021>030-083-271500
TEXAS TECH WEST TEXAS MESONET/TEXAS PANHANDLE/NORTHERN SOUTH PLAINS

CITY           SKY/WX    TMP DP  RH WIND       PRES   REMARKS
ABERNATHY 5ENE   N/A     69  65  87 SW12      30.11S
AMARILLO 7SSE    N/A     65  59  80 S8        30.12R
AMHERST 1NE      N/A     64  61  90 S5        30.13R
BOOTLEG 11WNW    N/A     65  53  65 S3        30.15R
CANADIAN 6E      N/A     64  60  85 E7        30.07R
CAPROCK CYN SP   N/A     71  66  83 SW8       30.08R
CHILDRESS 2NNE   N/A     67  61  82 W2        30.05S
CLARENDON 2WSW   N/A     66  60  80 SW6       30.09R
CLAUDE 12SW      N/A     66  61  83 S10       30.11S
DIMMITT 2NE      N/A     65  59  81 S6        30.12S
FLOYDADA 2NNE    N/A     68  66  92 SW7       30.10S
FRIONA 2NE       N/A     63  55  75 SW2       30.13S
GOODLETT 3W      N/A     66  61  84 E5        30.04S
HART 3N          N/A     64  61  91 SW7       30.12S
HEREFORD 2NW     N/A     63  54  73 S5        30.11S
MCLEAN 1E        N/A     65  59  82 SW1       30.07S
MEMPHIS 1NE      N/A     65  61  86 NE2       30.07R
MULESHOE 2SSW    N/A     64  61  91 SW1       30.12R
OLTON 6S         N/A     65  63  93 S7        30.12R
PALO DURO SP     N/A     66  59  78 S7        30.12R
PAMPA 2E         N/A     70  59  67 SW5       30.09R
PLAINVIEW 1S     N/A     66  65  94 SW6       30.10S
SILVERTON 7ESE   N/A     69  66  88 SW15      30.10R
TULIA 2ENE       N/A     64  63  96 SW15      30.12R
UMBARGER 3NNE    N/A     64  58  78 SW8       30.12R
$$

TXZ033>036-039>041-045>048-271500
TEXAS TECH WEST TEXAS MESONET/SOUTH PLAINS

CITY           SKY/WX    TMP DP  RH WIND       PRES   REMARKS
AIKEN 3WSW       N/A     68  66  92 S9        30.12R
ANDREWS 2NE      N/A     71  66  85 SE12      30.09S
ANTON 6SSW       N/A     66  65  95 S8        30.11S
BROWNFIELD 2S    N/A     67  66  97 S10       30.11R
DENVR CTY 7WNW   N/A     67  63  86 SE12      30.11R
GAIL 2ESE        N/A     70  67  90 S6        30.07S
LAMESA 2SE       N/A     70  68  92 S10       30.10R
LEVELLAND 4S     N/A     66  64  94 S6        30.11S
LUBBOCK 3WNW     N/A     70  65  82 S10       30.10S
MORTON 1ENE      N/A     67  63  87 S14       30.12R
ODONNELL 1N      N/A     68  66  91 S7        30.10R
PLAINS 3N        N/A     69  64  84 S13       30.11S
RALLS 1SE        N/A     67  66  96 S16       30.10R
REESE CENTER     N/A     69  65  90 S10       30.11R
SEAGRAVES 1SW    N/A     68  67  96 SE10      30.10S
SEMINOLE 2NNE    N/A     69  67  94 SE10      30.10S
SLATON 2NE       N/A     69  67  93 S12       30.10R
SNYDER 3E        N/A     70  69  94 S8        30.07R
SUNDOWN 8SW      N/A     65  64  93 SE6       30.11R
TAHOKA 3NNE      N/A     69  67  94 S13       30.10R
WOLFFORTH 6SSW   N/A     70  69  98 S9        30.11R
$$

TXZ031-032-036>038-042>044-271500-
TEXAS TECH WEST TEXAS MESONET/ROLLING PLAINS

CITY           SKY/WX    TMP DP  RH WIND       PRES   REMARKS
ASPERMONT 3NE    N/A     70  66  88 SW2       30.05R
FLUVANNA 3WNW    N/A     69  67  92 S9        30.08S
GUTHRIE 10WSW    N/A     71  64  78 SW6       30.05R
HASKELL 1NW      N/A     69  64  85 S6        30.04R
JAYTON 1SSE      N/A     67  63  86 W3        30.06R
KNOX CITY 3NW    N/A     71  63  76 S6        30.04R
LK A HENRY 1NW   N/A     74  69  85 SW8       30.06S
NORTHFIELD 1S    N/A     69  64  82 W2        30.04F
ODELL 4ENE       N/A     67  63  86 E7        30.06R
PADUCAH 10SW     N/A     72  66  80 SW7       30.04R
POST 1NE         N/A     73  67  81 S8        30.07S
RRING SPRGS 3N   N/A     72  69  88 SW12      30.07R
SEYMOUR 3NW      N/A     68  61  76 E2        30.06R
SPUR 1W          N/A     68  65  89 W2        30.06R
WEINERT 2NNE     N/A     70  65  85 S7        30.05R
WHITE RVR 6NE    N/A     69  66  88 S8        30.07S
$$

TXZ052-054-060>062-072-078-127-140-154-169-271500-
TEXAS TECH WEST TEXAS MESONET/PERMIAN BASIN/
CONCHO VALLEY/BIG COUNTRY/EDWARDS PLATEAU

CITY           SKY/WX    TMP DP  RH WIND       PRES   REMARKS
JUNCTION 1SSW    N/A     76  71  83 S9        30.07R
MERTZON 3NNE     N/A     76  70  83 S9        30.07S
SAN ANGELO 7NW   N/A     76  69  78 S8        30.06R
STRLNG CT 4WSW   N/A     74  70  86 SE12      30.07S
ST LAWRNCE 5SW   N/A     72  69  90 SE15      30.07R
SWEETWATR 11SW   N/A     71  69  93 S14       30.08R
WALL 1E          N/A     76  68  75 SE14      30.06R
$$

TXZ055-058-074-075-080-082-271500-
TEXAS TECH WEST TEXAS MESONET/FAR WEST/SOUTHWEST MOUNTAINS/TRANS PECOS

CITY           SKY/WX    TMP DP  RH WIND       PRES   REMARKS
PRSMN GAP BBNP   N/A     71  61  69 NE15      30.05R
$$



USA.gov is the U.S. government's official web portal to all federal, state and local government web resources and services.